CW3742 Weather Reports


time (UTC)temp
F
wind
direction
speed
knots
gust
knots
rain 1hr
in
rain 24hr
in
rain mn
in
humidity
%
barometer
mb
20260509223016 71 0 13.9 21.7 0.00 0.00 0.00 43 988.8
20260509220036 74 0 13.9 23.5 0.00 0.00 0.00 37 988.5
20260509213016 76 0 14.8 23.5 0.00 0.00 0.00 28 988.2
20260509210037 76 0 13.0 25.2 0.00 0.00 0.00 27 988.1
20260509203016 77 0 12.2 25.2 0.00 0.00 0.00 25 988.0
20260509200017 78 0 10.4 27.8 0.00 0.00 0.00 25 988.1
20260509193016 77 0 11.3 24.3 0.00 0.00 0.00 25 987.9
20260509190016 78 0 11.3 21.7 0.00 0.00 0.00 25 988.1
20260509183016 77 0 13.0 30.4 0.00 0.00 0.00 25 987.9
20260509180016 77 0 12.2 26.1 0.00 0.00 0.00 26 987.8
20260509173016 75 0 12.2 26.1 0.00 0.00 0.00 28 988.0
20260509170016 75 0 10.4 22.6 0.00 0.00 0.00 32 988.1
20260509163016 73 0 7.8 19.1 0.00 0.00 0.00 35 987.9
20260509160016 71 0 7.0 13.0 0.00 0.00 0.00 45 987.5
20260509153016 69 0 5.2 11.3 0.00 0.00 0.00 51 987.7
20260509150016 66 0 5.2 9.6 0.00 0.00 0.00 62 987.5
20260509143016 63 0 3.5 7.8 0.00 0.01 0.00 69 987.5
20260509140016 60 0 4.3 8.7 0.00 0.01 0.00 78 987.3
20260509133016 57 0 7.0 13.0 0.00 0.01 0.00 85 987.4
20260509130017 55 0 7.8 14.8 0.00 0.01 0.00 89 987.1
20260509123017 54 0 8.7 13.9 0.00 0.01 0.00 91 986.9
20260509120016 52 0 7.8 12.2 0.00 0.01 0.00 93 986.6
20260509113016 51 0 7.8 11.3 0.00 0.01 0.00 93 986.2
20260509110017 51 0 8.7 12.2 0.00 0.01 0.00 92 986.1
20260509103016 52 0 8.7 12.2 0.00 0.01 0.00 92 986.0
20260509100016 52 0 8.7 12.2 0.00 0.01 0.00 92 986.0
20260509093017 52 0 8.7 14.8 0.00 0.01 0.00 91 986.3
20260509090016 53 0 8.7 13.0 0.00 0.01 0.00 90 986.1
20260509083016 53 0 8.7 11.3 0.00 0.01 0.00 91 986.1
20260509080032 53 0 8.7 13.0 0.00 0.01 0.00 91 986.2
20260509073017 54 0 8.7 13.0 0.00 0.01 0.00 90 986.3
20260509070017 54 0 8.7 13.9 0.00 0.01 0.00 90 986.3
20260509063016 54 0 7.8 13.0 0.00 0.01 0.00 90 986.4
20260509060016 54 0 7.8 12.2 0.00 0.01 0.00 89 986.8
20260509053017 55 0 8.7 15.6 0.00 0.01 0.00 88 987.0
20260509050016 55 0 8.7 13.0 0.00 0.01 0.01 87 987.2
20260509043016 55 0 7.8 11.3 0.00 0.01 0.01 86 987.6
20260509040036 56 0 8.7 12.2 0.00 0.01 0.01 85 987.8
20260509033016 56 0 8.7 11.3 0.00 0.01 0.01 83 987.9
20260509030016 56 0 7.0 10.4 0.00 0.01 0.01 81 987.4
20260509023017 57 0 7.0 10.4 0.00 0.01 0.01 80 987.5
20260509020016 58 0 7.0 12.2 0.00 0.01 0.01 77 987.2
20260509013016 60 0 8.7 13.9 0.00 0.01 0.01 75 987.0
20260509010016 61 0 9.6 14.8 0.00 0.01 0.01 72 986.8
20260509003016 62 0 8.7 13.0 0.00 0.01 0.01 70 987.1
20260509000017 64 0 12.2 17.4 0.00 0.02 0.01 65 987.3
20260508233017 66 0 10.4 16.5 0.00 0.02 0.01 63 987.4
20260508230017 69 0 9.6 16.5 0.00 0.02 0.01 46 987.3